Location: Hackberry
(29.5783°N, 96.8797°W)
Time: 14:24:17
(UTC+00:00)

Vanguard 2 Rocket - Pass Details

Date: 14 November 2024
Orbit: 554 x 3296 km, 32.9° (Epoch: 30 November)

Event Time Altitude Azimuth Distance (km) Brightness Sun altitude
Rises 12:21:48 0° 234° (SW) 4,944 10.3 -6.9°
Reaches altitude 10° 12:24:32 10° 231° (SW) 4,253 10.0 -6.4°
Maximum altitude 12:37:05 70° 151° (SSE) 2,792 9.6 -3.8°
Drops below altitude 10° 12:56:27 10° 73° (ENE) 6,231 12.1 0.2°
Sets 13:01:27 0° 71° (ENE) 7,274 12.4 1.2°
